Regional Weather Roundup
Issued by NWS

Home | Current Version | Previous Version | Text Only | Print | Product List | Glossary Off
Versions: 1 2 3 4 5 6 7 8 9 10 11 12 13 14 15 16 17 18 19 20 21 22 23 24 25 26 27 28 29 30 31 32 33 34 35 36 37 38 39 40 41 42 43 44 45 46 47 48 49 50

000
ASUS43 KLSX 042210
RWRMO

WEATHER SUMMARY FOR MISSOURI
NATIONAL WEATHER SERVICE SPRINGFIELD MO
500 PM CDT TUE AUG 04 2015

NOTE: "FAIR" INDICATES FEW OR NO CLOUDS BELOW 12,000 FEET WITH NO
       SIGNIFICANT WEATHER AND/OR OBSTRUCTIONS TO VISIBILITY.
       CURRENT SKY AND/OR WEATHER CONDITIONS ARE NOT AVAILABLE FOR
       CHILLICOTHE AND FARMINGTON.

MOZ001>031-035>038-043-044-053-054-042300-
...NORTHERN AND WESTERN MISSOURI...

CITY           SKY/WX    TMP DP  RH WIND       PRES   REMARKS
KANSAS CTY INT CLOUDY    80  69  69 SE10      29.96R
KANSAS C DTWN  CLOUDY    82  71  69 SE7       29.95R
LEE`S SUMMIT   CLOUDY    80  70  71 E6        29.98R
ST JOSEPH      MOSUNNY   82  71  69 SE8       29.93S
CHILLICOTHE      N/A     82  69  64 SE8       29.95F
KIRKSVILLE     CLOUDY    76  66  71 SE9       29.98F

$$
MOZ066>068-077>081-088>096-101>105-042300-
...SOUTHWEST MISSOURI...

CITY           SKY/WX    TMP DP  RH WIND       PRES   REMARKS
SPRINGFIELD    CLOUDY    85  66  53 SW8       29.98F
JOPLIN         CLOUDY    82  70  66 N6        29.97F

$$
MOZ032>034-039>042-045>050-055>058-069>072-042300-
...CENTRAL MISSOURI...

CITY           SKY/WX    TMP DP  RH WIND       PRES   REMARKS
COLUMBIA       CLOUDY    80  72  76 E9        29.95F
JEFFERSON CITY CLOUDY    82  72  71 CALM      29.94F
ROLLA          CLOUDY    83  70  64 NE5       29.97S
SEDALIA        CLOUDY    80  71  74 E8        29.96F
WHITEMAN AFB   PTSUNNY   79  71  76 E5        29.94F
OSAGE BEACH    CLOUDY    86  72  62 CALM      29.96F HX  92

$$
MOZ051-052-059>065-042300-
...EAST CENTRAL MISSOURI...

CITY           SKY/WX    TMP DP  RH WIND       PRES   REMARKS
ST LOUIS INTL  CLOUDY    86  70  58 NE9       29.97S HX  90
SPIRIT OF STL  CLOUDY    85  73  67 NE8       29.95S HX  91
ST CHARLES     CLOUDY    84  71  65 NE6       29.95F

$$
MOZ072>076-082>087-097>100-106>115-042300-
...SOUTH CENTRAL AND SOUTHEAST MISSOURI...

CITY           SKY/WX    TMP DP  RH WIND       PRES   REMARKS
CAPE GIRARDEAU CLOUDY    88  74  63 SW6       29.93F HX  96
FARMINGTON     CLOUDY    82  72  69 CALM      30.01R
POPLAR BLUFF   PTSUNNY   90  71  53 SW8       29.93F HX  96
WEST PLAINS    CLOUDY    87  68  52 SW6       30.00F HX  90

$$



USA.gov is the U.S. government's official web portal to all federal, state and local government web resources and services.